• In Latvia
  • List of Countries
  • For 7 days
  • Water Temperature
  • Satellite Maps
  • Weather Map
  • Weather Widgets
  • user-avatar
    Login

    Hourly Weather Lubango

    Today, 29 June, Thursday

    Time Temperature Precipitation Wind Pressure Humidity
    00:00 +9°C° 0 mm 1 mps 607 mmHg 47%
    01:00 +9°C° 0 mm 1 mps 607 mmHg 50%
    02:00 +9°C° 0 mm 1 mps 607 mmHg 50%
    03:00 +8°C° 0 mm 1 mps 607 mmHg 50%
    04:00 +8°C° 0 mm 1 mps 607 mmHg 49%
    05:00 +9°C° 0 mm 1 mps 607 mmHg 46%
    06:00 +9°C° 0 mm 1 mps 607 mmHg 43%
    07:00 +11°C° 0 mm 1 mps 608 mmHg 38%
    08:00 +15°C° 0 mm 2 mps 610 mmHg 32%
    09:00 +18°C° 0 mm 2 mps 612 mmHg 26%
    10:00 +22°C° 0 mm 3 mps 614 mmHg 21%
    11:00 +25°C° 0 mm 2 mps 614 mmHg 19%
    12:00 +26°C° 0 mm 2 mps 614 mmHg 17%
    13:00 +27°C° 0 mm 2 mps 614 mmHg 15%
    14:00 +27°C° 0 mm 2 mps 613 mmHg 16%
    15:00 +26°C° 0 mm 1 mps 613 mmHg 16%
    16:00 +26°C° 0 mm 1 mps 612 mmHg 16%
    17:00 +22°C° 0 mm 1 mps 611 mmHg 24%
    18:00 +18°C° 0 mm 1 mps 609 mmHg 33%
    19:00 +12°C° 0 mm 1 mps 608 mmHg 42%
    20:00 +11°C° 0 mm 1 mps 608 mmHg 48%
    21:00 +10°C° 0 mm 1 mps 608 mmHg 54%
    22:00 +9°C° 0 mm 1 mps 608 mmHg 60%
    23:00 +9°C° 0 mm 1 mps 608 mmHg 61%

    Tomorrow, 30 June, Friday

    Time Temperature Precipitation Wind Pressure Humidity
    00:00 +8°C° 0 mm 1 mps 608 mmHg 62%
    01:00 +8°C° 0 mm 1 mps 608 mmHg 62%
    02:00 +8°C° 0 mm 1 mps 607 mmHg 60%
    03:00 +8°C° 0 mm 1 mps 607 mmHg 57%
    04:00 +8°C° 0 mm 1 mps 607 mmHg 55%
    05:00 +8°C° 0 mm 1 mps 608 mmHg 52%
    06:00 +9°C° 0 mm 1 mps 608 mmHg 49%
    07:00 +9°C° 0 mm 1 mps 608 mmHg 46%
    08:00 +13°C° 0 mm 2 mps 610 mmHg 36%
    09:00 +18°C° 0 mm 2 mps 612 mmHg 27%
    10:00 +23°C° 0 mm 2 mps 614 mmHg 17%
    11:00 +25°C° 0 mm 2 mps 615 mmHg 15%
    12:00 +26°C° 0 mm 2 mps 615 mmHg 14%
    13:00 +28°C° 0 mm 1 mps 615 mmHg 12%
    14:00 +27°C° 0 mm 1 mps 614 mmHg 13%
    15:00 +27°C° 0 mm 1 mps 613 mmHg 13%
    16:00 +26°C° 0 mm 1 mps 613 mmHg 13%
    17:00 +22°C° 0 mm 1 mps 611 mmHg 22%
    18:00 +16°C° 0 mm 1 mps 609 mmHg 32%
    19:00 +11°C° 0 mm 1 mps 608 mmHg 41%
    20:00 +11°C° 0 mm 1 mps 608 mmHg 44%
    21:00 +10°C° 0 mm 1 mps 608 mmHg 47%
    22:00 +9°C° 0 mm 1 mps 608 mmHg 50%
    23:00 +9°C° 0 mm 1 mps 608 mmHg 51%

    Day after tomorrow, 1 July, Saturday

    Time Temperature Precipitation Wind Pressure Humidity
    00:00 +9°C° 0 mm 1 mps 608 mmHg 52%
    01:00 +9°C° 0 mm 1 mps 608 mmHg 53%
    02:00 +9°C° 0 mm 1 mps 608 mmHg 51%
    03:00 +9°C° 0 mm 1 mps 607 mmHg 48%
    04:00 +8°C° 0 mm 2 mps 607 mmHg 46%
    05:00 +8°C° 0 mm 2 mps 607 mmHg 43%
    06:00 +8°C° 0 mm 2 mps 608 mmHg 40%
    07:00 +8°C° 0 mm 2 mps 608 mmHg 37%
    08:00 +14°C° 0 mm 2 mps 610 mmHg 31%
    09:00 +18°C° 0 mm 3 mps 612 mmHg 24%
    10:00 +24°C° 0 mm 3 mps 614 mmHg 17%
    11:00 +25°C° 0 mm 3 mps 614 mmHg 15%
    12:00 +26°C° 0 mm 2 mps 614 mmHg 13%
    13:00 +28°C° 0 mm 2 mps 614 mmHg 11%
    14:00 +27°C° 0 mm 2 mps 613 mmHg 11%
    15:00 +27°C° 0 mm 1 mps 613 mmHg 11%
    16:00 +27°C° 0 mm 1 mps 612 mmHg 11%
    17:00 +22°C° 0 mm 1 mps 610 mmHg 22%
    18:00 +16°C° 0 mm 1 mps 609 mmHg 32%
    19:00 +11°C° 0 mm 1 mps 607 mmHg 43%
    20:00 +11°C° 0 mm 1 mps 607 mmHg 41%
    21:00 +10°C° 0 mm 1 mps 607 mmHg 40%
    22:00 +10°C° 0 mm 1 mps 608 mmHg 38%
    23:00 +10°C° 0 mm 1 mps 608 mmHg 38%

    2 July, Sunday

    Time Temperature Precipitation Wind Pressure Humidity
    00:00 +10°C° 0 mm 1 mps 608 mmHg 38%
    01:00 +8°C° 0 mm 2 mps 607 mmHg 38%
    02:00 +8°C° 0 mm 2 mps 607 mmHg 38%
    03:00 +8°C° 0 mm 2 mps 607 mmHg 37%
    04:00 +8°C° 0 mm 2 mps 607 mmHg 37%
    05:00 +9°C° 0 mm 2 mps 607 mmHg 38%
    06:00 +9°C° 0 mm 2 mps 608 mmHg 39%
    07:00 +9°C° 0 mm 2 mps 608 mmHg 40%
    08:00 +13°C° 0 mm 3 mps 610 mmHg 33%
    09:00 +18°C° 0 mm 3 mps 612 mmHg 27%
    10:00 +22°C° 0 mm 3 mps 614 mmHg 20%
    11:00 +25°C° 0 mm 3 mps 613 mmHg 18%
    12:00 +26°C° 0 mm 2 mps 613 mmHg 16%
    13:00 +28°C° 0 mm 2 mps 613 mmHg 13%
    14:00 +27°C° 0 mm 1 mps 613 mmHg 14%
    15:00 +27°C° 0 mm 1 mps 612 mmHg 14%
    16:00 +27°C° 0 mm 1 mps 612 mmHg 14%
    17:00 +22°C° 0 mm 1 mps 610 mmHg 23%
    18:00 +16°C° 0 mm 1 mps 608 mmHg 32%
    19:00 +11°C° 0 mm 1 mps 607 mmHg 42%
    20:00 +11°C° 0 mm 1 mps 607 mmHg 46%
    21:00 +10°C° 0 mm 1 mps 607 mmHg 51%
    22:00 +9°C° 0 mm 1 mps 607 mmHg 56%
    23:00 +9°C° 0 mm 1 mps 607 mmHg 55%

    3 July, Monday

    Time Temperature Precipitation Wind Pressure Humidity
    00:00 +9°C° 0 mm 1 mps 607 mmHg 55%
    01:00 +9°C° 0 mm 1 mps 606 mmHg 55%
    02:00 +9°C° 0 mm 1 mps 606 mmHg 52%
    03:00 +9°C° 0 mm 1 mps 606 mmHg 49%
    04:00 +9°C° 0 mm 1 mps 606 mmHg 45%
    05:00 +8°C° 0 mm 2 mps 607 mmHg 44%
    06:00 +9°C° 0 mm 2 mps 607 mmHg 42%
    07:00 +9°C° 0 mm 2 mps 607 mmHg 41%
    08:00 +14°C° 0 mm 2 mps 609 mmHg 33%
    09:00 +19°C° 0 mm 2 mps 611 mmHg 26%
    10:00 +24°C° 0 mm 2 mps 613 mmHg 19%
    11:00 +26°C° 0 mm 2 mps 613 mmHg 17%
    12:00 +27°C° 0 mm 2 mps 613 mmHg 15%
    13:00 +29°C° 0 mm 1 mps 613 mmHg 13%
    14:00 +28°C° 0 mm 1 mps 613 mmHg 14%
    15:00 +27°C° 0 mm 2 mps 612 mmHg 15%
    16:00 +26°C° 0 mm 2 mps 612 mmHg 16%
    17:00 +21°C° 0 mm 2 mps 610 mmHg 29%
    18:00 +16°C° 0 mm 1 mps 609 mmHg 42%
    19:00 +11°C° 0 mm 1 mps 607 mmHg 56%
    20:00 +10°C° 0 mm 1 mps 607 mmHg 62%
    21:00 +9°C° 0 mm 1 mps 607 mmHg 69%
    22:00 +7°C° 0 mm 0 mps 607 mmHg 76%
    23:00 +7°C° 0 mm 0 mps 607 mmHg 76%

    4 July, Tuesday

    Time Temperature Precipitation Wind Pressure Humidity
    00:00 +6°C° 0 mm 0 mps 606 mmHg 76%
    01:00 +7°C° 0 mm 1 mps 606 mmHg 76%
    02:00 +7°C° 0 mm 1 mps 606 mmHg 73%
    03:00 +7°C° 0 mm 1 mps 606 mmHg 71%
    04:00 +7°C° 0 mm 1 mps 606 mmHg 68%
    05:00 +8°C° 0 mm 1 mps 606 mmHg 63%
    06:00 +8°C° 0 mm 1 mps 607 mmHg 57%
    07:00 +9°C° 0 mm 1 mps 607 mmHg 52%
    08:00 +13°C° 0 mm 1 mps 609 mmHg 41%
    09:00 +18°C° 0 mm 2 mps 612 mmHg 29%
    10:00 +24°C° 0 mm 2 mps 614 mmHg 17%
    11:00 +25°C° 0 mm 2 mps 614 mmHg 16%
    12:00 +27°C° 0 mm 1 mps 614 mmHg 14%
    13:00 +28°C° 0 mm 1 mps 614 mmHg 13%
    14:00 +27°C° 0 mm 1 mps 613 mmHg 14%
    15:00 +27°C° 0 mm 2 mps 612 mmHg 16%
    16:00 +26°C° 0 mm 2 mps 612 mmHg 17%
    17:00 +20°C° 0 mm 2 mps 610 mmHg 33%
    18:00 +16°C° 0 mm 1 mps 609 mmHg 48%
    19:00 +11°C° 0 mm 1 mps 608 mmHg 64%
    20:00 +10°C° 0 mm 1 mps 608 mmHg 69%
    21:00 +9°C° 0 mm 1 mps 608 mmHg 73%
    22:00 +8°C° 0 mm 1 mps 608 mmHg 78%
    23:00 +8°C° 0 mm 1 mps 607 mmHg 74%
    Show more